[[{"header":{"parameterUnit":"m.s-1","parameterCategory":2,"la1":30.2991,"la2":30.254,"lo1":-89.0895,"lo2":-89.0444,"dy":0.0017,"dx":0.0017,"nx":28,"ny":28,"refTime":"2025-01-24T03:00:00:Z","depth":"0","parameterNumber":2,"parameterNumberName":"U-component_of_CURRENTS"},"data":[0,0,0,0,0,0,0,0,0,0,0,0,0,0,0,0,0,0,0,0,0,0,0,0,0,0,0,0,0,0,0,0,0,0,0,0,0,0,0,0,0,0,0,0,0,0,0,0,0,0,0,0,0,0,0,0,0,0,-0.3306,-0.3305,0,-0.3167,-0.3165,-0.3163,-0.3098,-0.3098,-0.3099,-0.3099,-0.2948,-0.2944,-0.2939,0,0,0,0,0,0,0,0,0,0,0,0,0,-0.3358,-0.3358,-0.3306,-0.3305,-0.3303,-0.3168,-0.3165,-0.3163,-0.3097,-0.3098,-0.3099,-0.31,-0.295,-0.2944,-0.2939,0,0,0,0,0,0,0,0,0,0,0,0,0,-0.3284,-0.3358,-0.3306,-0.3259,-0.3254,-0.3168,-0.3165,-0.3162,-0.3097,-0.3098,-0.3099,-0.31,-0.2951,-0.2945,-0.2938,-0.2877,0,0,-0.2917,-0.2914,0,0,0,0,0,0,0,0,-0.3288,-0.3281,-0.3267,-0.3262,-0.3256,-0.3156,-0.3128,-0.3068,-0.3097,-0.315,-0.3099,-0.31,-0.302,-0.3007,-0.2971,-0.287,-0.2863,-0.2916,-0.2912,-0.2909,-0.2907,0,0,0,0,0,0,0,-0.3294,-0.3286,-0.3245,-0.3266,-0.3259,-0.3192,-0.3183,-0.3115,-0.3077,-0.3146,-0.3142,-0.3136,-0.3016,-0.2978,-0.2967,-0.2861,-0.2916,-0.291,-0.2906,-0.2903,-0.2727,-0.2727,0,0,0,0,0,0,-0.333,-0.3292,-0.3249,-0.3241,-0.3282,-0.3191,-0.3181,-0.3182,-0.3077,-0.3064,-0.3135,-0.3133,-0.2989,-0.2975,-0.2961,-0.2925,-0.2909,-0.2903,-0.2899,-0.2728,-0.2727,-0.2727,0,0,0,0,0,0,-0.3332,-0.3328,-0.3255,-0.3267,-0.3254,-0.3191,-0.3192,-0.3179,-0.3154,-0.3071,-0.3056,-0.3127,-0.2989,-0.2971,-0.2917,-0.2918,-0.29,-0.2893,-0.2729,-0.2728,-0.2727,-0.2827,0,0,0,0,0,0,-0.3334,-0.3329,-0.3321,-0.3271,-0.3255,-0.3216,-0.3191,-0.3176,-0.3151,-0.3148,-0.3058,-0.3044,-0.2988,-0.2928,-0.291,-0.2908,-0.2888,-0.2729,-0.2728,-0.2727,-0.2824,-0.283,-0.2834,0,0,0,0,0,-0.3336,-0.3303,-0.3322,-0.3315,-0.3254,-0.3217,-0.3202,-0.3155,-0.3151,-0.3136,-0.3084,-0.3047,-0.2909,-0.2922,-0.2901,-0.2897,-0.273,-0.2728,-0.2727,-0.2822,-0.2828,-0.2834,0,0,0,0,0,0,-0.3297,-0.3293,-0.3312,-0.3275,-0.3268,-0.3209,-0.3167,-0.3165,-0.3109,-0.3101,-0.3039,-0.302,-0.2977,-0.2917,-0.2933,-0.2841,-0.2813,-0.2808,-0.2892,-0.2897,-0.2902,-0.2921,-0.2882,0,0,0,0,0,-0.3299,-0.3289,-0.3285,-0.326,-0.3254,-0.3225,-0.3198,-0.3186,-0.314,-0.3117,-0.3062,-0.2997,-0.295,-0.2912,-0.2854,-0.2795,-0.2809,-0.2778,-0.2783,-0.2788,-0.2787,-0.2813,-0.2822,-0.2723,-0.2723,-0.2723,0,0,-0.3285,-0.3274,-0.3272,-0.3255,-0.3231,-0.3232,-0.3208,-0.3176,-0.3182,-0.3107,-0.3068,-0.3016,-0.2942,-0.2889,-0.2862,-0.284,-0.2833,-0.2786,-0.2791,-0.2788,-0.2813,-0.2824,-0.2833,-0.2722,-0.2722,-0.2722,0,0,-0.325,-0.3241,-0.3233,-0.3241,-0.323,-0.3212,-0.3221,-0.3186,-0.317,-0.3145,-0.3097,-0.305,-0.2963,-0.291,-0.2876,-0.2867,-0.2869,-0.2844,-0.2871,-0.2897,-0.2907,-0.2915,-0.3002,-0.3017,-0.2834,-0.2834,-0.2834,0,-0.323,-0.3232,-0.3221,-0.3229,-0.323,-0.3222,-0.323,-0.3215,-0.3172,-0.3169,-0.3148,-0.3051,-0.2977,-0.2938,-0.292,-0.2881,-0.292,-0.2863,-0.2909,-0.2917,-0.2924,-0.3011,-0.3026,-0.2839,-0.2838,-0.2838,-0.2838,0,-0.3211,-0.3227,-0.3212,-0.3239,-0.3238,-0.323,-0.3244,-0.3241,-0.323,-0.3224,-0.3196,-0.3105,-0.3053,-0.3016,-0.2955,-0.2953,-0.2978,-0.2932,-0.2909,-0.2941,-0.303,-0.3044,-0.2846,-0.2844,-0.2843,-0.2841,0,0,-0.3126,-0.319,-0.319,-0.3238,-0.3246,-0.3254,-0.3268,-0.328,-0.3324,-0.3271,-0.3305,-0.3187,-0.3156,-0.3111,-0.3038,-0.3025,-0.3105,-0.2991,-0.2991,-0.3106,-0.3226,-0.3131,-0.3138,-0.3078,-0.308,-0.3081,-0.3291,0,-0.3113,-0.3153,-0.3176,-0.3232,-0.3258,-0.3286,-0.3323,-0.3348,-0.3349,-0.3381,-0.3312,-0.3297,-0.3192,-0.3168,-0.3146,-0.3114,-0.3138,-0.3055,-0.3151,-0.3155,-0.3087,-0.3147,-0.2802,-0.2948,-0.3305,-0.3307,-0.3309,0,-0.3075,-0.312,-0.3164,-0.3282,-0.3296,-0.3322,-0.3393,-0.3429,-0.3476,-0.3488,-0.3466,-0.3431,-0.339,-0.3301,-0.3303,-0.3264,-0.3249,-0.3229,-0.3237,-0.3114,-0.3083,-0.2956,-0.296,-0.2911,-0.3331,-0.333,-0.3328,0,-0.3012,-0.3109,-0.3147,-0.3182,-0.33,-0.3326,-0.3372,-0.3438,-0.3488,-0.3536,-0.3582,-0.3557,-0.3556,-0.3521,-0.3469,-0.3396,-0.3523,-0.3422,-0.3344,-0.3342,-0.3044,-0.3009,-0.3018,-0.3447,-0.3447,-0.3446,-0.3446,0,-0.2961,-0.3001,-0.3133,-0.3157,-0.3254,-0.3324,-0.3404,-0.3467,-0.3548,-0.3593,-0.3615,-0.3626,-0.3605,-0.3656,-0.358,-0.3541,-0.3627,-0.3373,-0.3377,-0.3072,-0.3039,-0.2974,-0.3002,-0.3454,-0.3453,-0.3451,-0.345,0,-0.2856,-0.294,-0.302,-0.3163,-0.3218,-0.3274,-0.3413,-0.3469,-0.3571,-0.3629,-0.364,-0.3725,-0.3728,-0.3764,-0.3758,-0.3689,-0.356,-0.3627,-0.3307,-0.3265,-0.3027,-0.3072,-0.3131,-0.3059,-0.3529,-0.3528,-0.3527,0,-0.2782,-0.2813,-0.3005,-0.3066,-0.3115,-0.3224,-0.3295,-0.3437,-0.348,-0.3629,-0.3635,-0.3719,-0.3627,-0.3697,-0.3565,-0.3509,-0.3522,-0.3297,-0.3029,-0.2991,-0.3047,-0.3089,-0.3026,-0.2719,-0.2711,-0.2705,-0.27,0,-0.2657,-0.2736,-0.2822,-0.2952,-0.3036,-0.3147,-0.3235,-0.3284,-0.3418,-0.3446,-0.3427,-0.3364,-0.337,-0.3114,-0.3171,-0.3085,-0.3129,-0.3162,-0.3169,-0.2454,-0.2451,-0.2388,-0.2692,-0.2644,-0.265,-0.2654,-0.2657,-0.2659,-0.2556,-0.2596,-0.2714,-0.2823,-0.2926,-0.2973,-0.2976,-0.3042,-0.3047,-0.2998,-0.3081,-0.2898,-0.2773,-0.2642,-0.2637,-0.2501,-0.2645,-0.2367,-0.2455,-0.2529,-0.2336,-0.2562,-0.2475,-0.248,-0.2483,-0.2487,-0.249,0,-0.2419,-0.2483,-0.2568,-0.2684,-0.2715,-0.2815,-0.2869,-0.2806,-0.2689,-0.2617,-0.2484,-0.224,-0.2004,-0.2017,-0.1879,-0.1813,-0.1761,-0.1867,-0.1789,-0.1779,-0.1968,-0.1796,-0.1497,-0.1497,-0.1498,-0.1498,-0.1498,-0.1498,-0.2352,-0.2386,-0.2434,-0.2437,-0.2491,-0.2428,-0.2402,-0.2313,-0.2219,-0.1912,-0.1745,-0.1681,-0.169,-0.1711,-0.1575,-0.15,-0.1528,-0.1441,-0.1685,-0.1727,-0.1778,-0.1827,-0.1668,-0.1348,-0.1348,-0.1265,-0.1265,-0.1264]},{"header":{"parameterUnit":"m.s-1","parameterCategory":2,"la1":30.2991,"la2":30.254,"lo1":-89.0895,"lo2":-89.0444,"dy":0.0017,"dx":0.0017,"nx":28,"ny":28,"refTime":"2025-01-24T03:00:00:Z","depth":"0","parameterNumber":3,"parameterNumberName":"V-component_of_CURRENTS"},"data":[0,0,0,0,0,0,0,0,0,0,0,0,0,0,0,0,0,0,0,0,0,0,0,0,0,0,0,0,0,0,0,0,0,0,0,0,0,0,0,0,0,0,0,0,0,0,0,0,0,0,0,0,0,0,0,0,0,0,0.0655,0.0654,0,0.0603,0.0602,0.0602,0.0583,0.0583,0.0583,0.0583,0.0569,0.0569,0.0569,0,0,0,0,0,0,0,0,0,0,0,0,0,0.0715,0.0714,0.0655,0.0654,0.0653,0.0603,0.0602,0.0602,0.0583,0.0583,0.0583,0.0583,0.0569,0.0569,0.0569,0,0,0,0,0,0,0,0,0,0,0,0,0,0.0681,0.0714,0.0655,0.0636,0.0634,0.0603,0.0602,0.0602,0.0583,0.0583,0.0583,0.0583,0.057,0.0569,0.0569,0.0567,0,0,0.0567,0.0567,0,0,0,0,0,0,0,0,0.0683,0.0679,0.064,0.0637,0.0634,0.0597,0.0618,0.0591,0.0583,0.0605,0.0583,0.0583,0.0581,0.0579,0.0573,0.0567,0.0566,0.0567,0.0567,0.0567,0.0567,0,0,0,0,0,0,0,0.0685,0.0681,0.0637,0.0639,0.0635,0.0621,0.0617,0.0613,0.0596,0.0603,0.0601,0.0591,0.058,0.0573,0.0572,0.0566,0.0567,0.0567,0.0567,0.0566,0.057,0.057,0,0,0,0,0,0,0.0688,0.0683,0.0638,0.0635,0.0656,0.062,0.0616,0.0611,0.0596,0.0592,0.0591,0.059,0.0574,0.0573,0.0572,0.0569,0.0567,0.0566,0.0566,0.0569,0.057,0.057,0,0,0,0,0,0,0.069,0.0685,0.0641,0.0656,0.0649,0.0619,0.0615,0.061,0.0603,0.0586,0.0583,0.0588,0.0574,0.0572,0.0577,0.0569,0.0566,0.0566,0.0569,0.0569,0.057,0.0564,0,0,0,0,0,0,0.0692,0.0686,0.0687,0.0656,0.0648,0.0625,0.0614,0.0609,0.0596,0.0594,0.0582,0.0581,0.0574,0.0578,0.0577,0.0568,0.0565,0.0568,0.0569,0.057,0.0564,0.0565,0.0565,0,0,0,0,0,0.0694,0.0682,0.0688,0.0682,0.065,0.0625,0.062,0.06,0.0596,0.0594,0.0592,0.0581,0.0581,0.0578,0.0577,0.0567,0.0568,0.0569,0.057,0.0564,0.0565,0.0565,0,0,0,0,0,0,0.0717,0.0678,0.0684,0.0665,0.0653,0.0621,0.0605,0.0602,0.0598,0.0594,0.0588,0.0587,0.0588,0.0584,0.0581,0.0572,0.0572,0.0572,0.0568,0.0569,0.0569,0.0541,0.0565,0,0,0,0,0,0.0723,0.0696,0.0678,0.0665,0.0655,0.0636,0.0624,0.0615,0.0602,0.0599,0.0596,0.0592,0.059,0.0585,0.0585,0.058,0.0582,0.0573,0.0574,0.0574,0.0551,0.0537,0.0533,0.0573,0.0573,0.0573,0,0,0.0734,0.0702,0.0694,0.0667,0.065,0.0626,0.0629,0.0605,0.0593,0.06,0.0587,0.0596,0.0592,0.0588,0.0586,0.0582,0.0578,0.0575,0.0575,0.0552,0.0537,0.0533,0.0529,0.0573,0.0573,0.0573,0,0,0.0705,0.0709,0.0667,0.0657,0.0626,0.0618,0.0614,0.0594,0.0593,0.0593,0.0592,0.0594,0.0596,0.0582,0.0577,0.058,0.0585,0.059,0.056,0.0547,0.0543,0.0539,0.0591,0.0592,0.0584,0.0584,0.0584,0,0.0717,0.0658,0.0657,0.0616,0.0596,0.0613,0.0575,0.0583,0.0574,0.0566,0.059,0.0581,0.0585,0.0559,0.0564,0.0576,0.0594,0.0557,0.0545,0.0541,0.0537,0.0591,0.0592,0.0584,0.0584,0.0584,0.0584,0,0.0648,0.0615,0.0588,0.0541,0.0538,0.0504,0.0517,0.0521,0.0533,0.0535,0.0533,0.0551,0.0535,0.055,0.0558,0.0532,0.0567,0.0552,0.0539,0.0532,0.0592,0.0592,0.0583,0.0583,0.0583,0.0584,0,0,0.0625,0.0548,0.0538,0.0494,0.0488,0.0461,0.0469,0.0452,0.0428,0.0469,0.044,0.0463,0.0478,0.0473,0.049,0.0486,0.0505,0.0508,0.0507,0.0553,0.0527,0.06,0.0608,0.0486,0.0485,0.0484,0.0599,0,0.0559,0.044,0.0443,0.0368,0.031,0.035,0.0343,0.0352,0.0374,0.0366,0.0406,0.0393,0.0449,0.044,0.0449,0.048,0.0497,0.0478,0.0531,0.0533,0.059,0.0607,0.0566,0.0666,0.06,0.06,0.06,0,0.0478,0.04,0.0296,0.0233,0.0217,0.0198,0.0174,0.0178,0.0207,0.0229,0.0255,0.0291,0.0315,0.0351,0.0418,0.0407,0.0461,0.0498,0.0503,0.056,0.0605,0.0651,0.067,0.0832,0.0601,0.0601,0.0601,0,0.0393,0.0301,0.0198,0.018,0.0129,0.0105,0.0097,0.0119,0.0101,0.0142,0.0132,0.0193,0.0215,0.0279,0.0413,0.0397,0.0502,0.0483,0.061,0.0619,0.0585,0.0592,0.0747,0.0507,0.0506,0.0506,0.0506,0,0.0294,0.0219,0.0142,0.0081,-0.0024,0.0006,-0.0069,-0.0051,-0.0037,-0.0077,0.0044,0.0042,0.019,0.0286,0.0391,0.0541,0.0495,0.0608,0.0637,0.0593,0.0599,0.0737,0.0801,0.051,0.0509,0.0508,0.0508,0,0.0207,0.016,0.0029,-0.0057,-0.0079,-0.0152,-0.0192,-0.0246,-0.0189,-0.0232,-0.0223,-0.0076,0.0078,0.0263,0.0407,0.0515,0.0728,0.0701,0.0689,0.0714,0.095,0.1013,0.1171,0.1252,0.0828,0.083,0.0832,0,0.0143,0.0061,-0.0088,-0.0174,-0.0222,-0.0305,-0.0368,-0.0337,-0.0382,-0.0311,-0.0351,-0.0176,-0.0055,0.0268,0.0485,0.0721,0.0838,0.0835,0.0771,0.097,0.1061,0.1106,0.1165,0.0755,0.0756,0.0757,0.0758,0,0.0015,-0.0041,-0.0161,-0.0336,-0.044,-0.0539,-0.0613,-0.0662,-0.0617,-0.0591,-0.0509,-0.0387,-0.0058,0.0233,0.0592,0.0715,0.0933,0.086,0.1029,0.0991,0.1078,0.1169,0.0735,0.0766,0.0765,0.0764,0.0764,0.0764,-0.0084,-0.0201,-0.0358,-0.0521,-0.0637,-0.0751,-0.0813,-0.0842,-0.0856,-0.0788,-0.0657,-0.0453,-0.0018,0.0481,0.0667,0.1039,0.1013,0.1111,0.1171,0.1202,0.1271,0.0906,0.0987,0.0988,0.0988,0.0989,0.0989,0,-0.022,-0.0347,-0.0522,-0.0716,-0.0858,-0.0866,-0.0964,-0.0976,-0.0962,-0.0867,-0.0728,-0.0302,0.0144,0.0579,0.1112,0.1326,0.135,0.1452,0.1476,0.152,0.1154,0.1142,0.1304,0.1304,0.1304,0.1303,0.1303,0.1303,-0.0303,-0.0506,-0.0604,-0.0871,-0.0978,-0.11,-0.1138,-0.11,-0.1031,-0.0796,-0.0563,-0.0388,0.0236,0.1105,0.1628,0.1676,0.1869,0.1838,0.1996,0.1717,0.1689,0.1661,0.1668,0.1937,0.1937,0.2298,0.2302,0.2304]}],[{"header":{"parameterUnit":"m.s-1","parameterCategory":2,"la1":30.2991,"la2":30.254,"lo1":-89.0895,"lo2":-89.0444,"dy":0.0017,"dx":0.0017,"nx":28,"ny":28,"refTime":"2025-01-24T03:00:00:Z","depth":"2","parameterNumber":2,"parameterNumberName":"U-component_of_CURRENTS"},"data":[0,0,0,0,0,0,0,0,0,0,0,0,0,0,0,0,0,0,0,0,0,0,0,0,0,0,0,0,0,0,0,0,0,0,0,0,0,0,0,0,0,0,0,0,0,0,0,0,0,0,0,0,0,0,0,0,0,0,-0.1807,-0.1809,0,-0.2179,-0.2186,-0.2193,-0.2326,-0.2322,-0.2318,-0.2314,-0.2322,-0.2326,-0.233,0,0,0,0,0,0,0,0,0,0,0,0,0,-0.1755,-0.1754,-0.1807,-0.1809,-0.1811,-0.2178,-0.2186,-0.2195,-0.2327,-0.2322,-0.2317,-0.2312,-0.2321,-0.2325,-0.233,0,0,0,0,0,0,0,0,0,0,0,0,0,-0.1945,-0.1754,-0.1807,-0.1899,-0.1908,-0.2177,-0.2187,-0.2197,-0.2328,-0.2322,-0.2316,-0.231,-0.2319,-0.2325,-0.2331,-0.2492,0,0,-0.235,-0.2352,0,0,0,0,0,0,0,0,-0.1933,-0.195,-0.1883,-0.1892,-0.1903,-0.2173,-0.217,-0.2267,-0.233,-0.2201,-0.2314,-0.2307,-0.2223,-0.2237,-0.2369,-0.2492,-0.2493,-0.235,-0.2354,-0.2356,-0.2358,0,0,0,0,0,0,0,-0.1919,-0.1938,-0.1985,-0.1885,-0.1897,-0.2106,-0.2125,-0.2196,-0.2259,-0.2212,-0.2215,-0.221,-0.2229,-0.2364,-0.2368,-0.2493,-0.235,-0.2355,-0.2359,-0.2361,-0.2526,-0.2527,0,0,0,0,0,0,-0.179,-0.1922,-0.1973,-0.1993,-0.1869,-0.2107,-0.213,-0.2118,-0.2266,-0.2277,-0.2215,-0.2214,-0.2357,-0.2362,-0.2368,-0.2396,-0.2356,-0.2362,-0.2365,-0.2525,-0.2526,-0.2527,0,0,0,0,0,0,-0.1788,-0.1791,-0.1957,-0.1944,-0.1974,-0.2107,-0.2098,-0.2128,-0.2259,-0.2267,-0.2275,-0.2307,-0.2352,-0.236,-0.2403,-0.24,-0.2365,-0.237,-0.2525,-0.2526,-0.2527,-0.2556,0,0,0,0,0,0,-0.1785,-0.1789,-0.1787,-0.1933,-0.1969,-0.2123,-0.2102,-0.2138,-0.2249,-0.2254,-0.2349,-0.2345,-0.2348,-0.2394,-0.2409,-0.2408,-0.2375,-0.2524,-0.2525,-0.2526,-0.2554,-0.2558,-0.2561,0,0,0,0,0,-0.1783,-0.179,-0.1785,-0.1792,-0.1944,-0.2124,-0.2171,-0.2265,-0.2259,-0.2358,-0.2369,-0.2342,-0.241,-0.2403,-0.2419,-0.2419,-0.2523,-0.2525,-0.2526,-0.2552,-0.2557,-0.2561,0,0,0,0,0,0,-0.1774,-0.1805,-0.1803,-0.1818,-0.1952,-0.2133,-0.2214,-0.2289,-0.241,-0.2386,-0.2394,-0.2395,-0.2417,-0.2433,-0.2423,-0.2466,-0.2448,-0.2454,-0.2462,-0.2467,-0.2471,-0.2473,-0.238,0,0,0,0,0,-0.1757,-0.1762,-0.1857,-0.1878,-0.1928,-0.2085,-0.2176,-0.2254,-0.2347,-0.2404,-0.2442,-0.2453,-0.2457,-0.2467,-0.2494,-0.2563,-0.2559,-0.2558,-0.2562,-0.2565,-0.2577,-0.2559,-0.2562,-0.2533,-0.2533,-0.2532,0,0,-0.1749,-0.1769,-0.177,-0.1877,-0.1981,-0.2118,-0.2135,-0.2278,-0.2373,-0.2373,-0.2492,-0.2483,-0.2477,-0.2519,-0.2529,-0.2521,-0.2578,-0.2567,-0.257,-0.258,-0.2561,-0.2564,-0.2566,-0.2534,-0.2533,-0.2533,0,0,-0.1784,-0.1763,-0.1812,-0.1934,-0.2067,-0.2159,-0.2191,-0.2375,-0.2427,-0.2545,-0.2517,-0.2513,-0.2586,-0.2569,-0.2561,-0.2615,-0.2594,-0.2606,-0.2638,-0.2621,-0.2623,-0.2624,-0.2648,-0.2651,-0.261,-0.261,-0.261,0,-0.1782,-0.185,-0.1875,-0.1999,-0.2082,-0.2164,-0.23,-0.2397,-0.2569,-0.258,-0.2556,-0.2608,-0.2603,-0.2605,-0.2606,-0.2621,-0.2623,-0.262,-0.2624,-0.2626,-0.2627,-0.265,-0.2653,-0.2612,-0.2612,-0.2612,-0.2612,0,-0.1894,-0.1978,-0.2028,-0.2164,-0.2268,-0.2406,-0.249,-0.2575,-0.2596,-0.2662,-0.2669,-0.267,-0.268,-0.2667,-0.2657,-0.2657,-0.266,-0.2627,-0.2612,-0.2632,-0.2655,-0.2658,-0.2614,-0.2614,-0.2613,-0.2613,0,0,-0.1833,-0.2056,-0.2086,-0.2178,-0.2371,-0.2462,-0.2558,-0.2664,-0.2679,-0.2762,-0.2772,-0.2772,-0.2742,-0.2732,-0.2703,-0.2691,-0.2705,-0.2671,-0.2669,-0.2692,-0.2699,-0.2566,-0.2557,-0.2665,-0.2665,-0.2665,-0.272,0,-0.1935,-0.2161,-0.2242,-0.2451,-0.2573,-0.2646,-0.2714,-0.2793,-0.2808,-0.2833,-0.2783,-0.2781,-0.2771,-0.2741,-0.2736,-0.2703,-0.2711,-0.2695,-0.2678,-0.2678,-0.2555,-0.2554,-0.2343,-0.236,-0.2723,-0.2723,-0.2724,0,-0.2046,-0.2176,-0.2388,-0.2559,-0.2605,-0.2702,-0.276,-0.2842,-0.2859,-0.2858,-0.2846,-0.2818,-0.2812,-0.2772,-0.2768,-0.2759,-0.2745,-0.2722,-0.2722,-0.2589,-0.2549,-0.2394,-0.2351,-0.2728,-0.2728,-0.2728,-0.2727,0,-0.2009,-0.2273,-0.2414,-0.2504,-0.27,-0.2728,-0.2784,-0.2829,-0.285,-0.2851,-0.285,-0.2844,-0.2811,-0.2805,-0.2771,-0.2773,-0.2749,-0.274,-0.2623,-0.2617,-0.2427,-0.2401,-0.2738,-0.2738,-0.2738,-0.2738,-0.2738,0,-0.2093,-0.2222,-0.2393,-0.2488,-0.2571,-0.2691,-0.273,-0.2772,-0.2806,-0.281,-0.2836,-0.2807,-0.281,-0.2793,-0.2784,-0.2705,-0.2765,-0.2633,-0.2607,-0.2433,-0.2408,-0.2714,-0.271,-0.274,-0.274,-0.2739,-0.2739,0,-0.2071,-0.2216,-0.2376,-0.2542,-0.2571,-0.261,-0.2704,-0.2723,-0.2766,-0.2767,-0.2765,-0.2784,-0.2737,-0.2744,-0.2712,-0.2689,-0.2643,-0.2602,-0.2415,-0.2364,-0.254,-0.2538,-0.2503,-0.2499,-0.2495,-0.2492,-0.2489,0,-0.2108,-0.2183,-0.2353,-0.2394,-0.2465,-0.2536,-0.2571,-0.2669,-0.2693,-0.2727,-0.2713,-0.2681,-0.2574,-0.2508,-0.2459,-0.2417,-0.2518,-0.2232,-0.2177,-0.253,-0.251,-0.2514,-0.2516,-0.1972,-0.1965,-0.196,-0.1955,0,-0.2116,-0.2148,-0.2236,-0.2314,-0.2367,-0.2439,-0.2495,-0.2508,-0.2595,-0.2531,-0.2434,-0.2335,-0.2304,-0.2108,-0.209,-0.2052,-0.222,-0.2115,-0.2511,-0.2042,-0.2026,-0.2007,-0.2028,-0.1906,-0.1911,-0.1915,-0.1918,-0.192,-0.206,-0.2084,-0.2145,-0.2201,-0.226,-0.2274,-0.2236,-0.2256,-0.2172,-0.2065,-0.2136,-0.194,-0.1966,-0.1766,-0.17,-0.1708,-0.1865,-0.1823,-0.1842,-0.1866,-0.1773,-0.1746,-0.1562,-0.1565,-0.1568,-0.157,-0.1572,0,-0.1962,-0.197,-0.2025,-0.2065,-0.2046,-0.2133,-0.2129,-0.1998,-0.1763,-0.1784,-0.1627,-0.1432,-0.1305,-0.1383,-0.1296,-0.1293,-0.1307,-0.126,-0.1278,-0.1325,-0.1368,-0.1252,-0.0902,-0.0901,-0.0899,-0.0898,0,0,-0.1902,-0.1878,-0.1902,-0.1817,-0.1833,-0.171,-0.1648,-0.1421,-0.135,-0.1131,-0.1081,-0.1222,-0.1297,-0.109,-0.105,-0.0961,-0.1136,-0.0913,-0.1442,-0.1506,-0.1547,-0.1676,-0.1546,0,0,0,0,0]},{"header":{"parameterUnit":"m.s-1","parameterCategory":2,"la1":30.2991,"la2":30.254,"lo1":-89.0895,"lo2":-89.0444,"dy":0.0017,"dx":0.0017,"nx":28,"ny":28,"refTime":"2025-01-24T03:00:00:Z","depth":"2","parameterNumber":3,"parameterNumberName":"V-component_of_CURRENTS"},"data":[0,0,0,0,0,0,0,0,0,0,0,0,0,0,0,0,0,0,0,0,0,0,0,0,0,0,0,0,0,0,0,0,0,0,0,0,0,0,0,0,0,0,0,0,0,0,0,0,0,0,0,0,0,0,0,0,0,0,-0.0183,-0.0182,0,-0.0049,-0.0047,-0.0045,0.0023,0.0023,0.0023,0.0022,0.0153,0.0157,0.0161,0,0,0,0,0,0,0,0,0,0,0,0,0,-0.0346,-0.0344,-0.0183,-0.0182,-0.018,-0.0049,-0.0047,-0.0045,0.0023,0.0023,0.0023,0.0022,0.0152,0.0157,0.0161,0,0,0,0,0,0,0,0,0,0,0,0,0,-0.0246,-0.0343,-0.0183,-0.0134,-0.0129,-0.005,-0.0047,-0.0044,0.0024,0.0023,0.0022,0.0022,0.0151,0.0156,0.0162,0.0208,0,0,0.0179,0.0182,0,0,0,0,0,0,0,0,-0.0252,-0.0239,-0.0142,-0.0137,-0.0131,-0.0034,-0.0057,0.0038,0.0024,-0.0029,0.0022,0.0022,0.0088,0.0099,0.0132,0.0214,0.022,0.018,0.0183,0.0186,0.0187,0,0,0,0,0,0,0,-0.0259,-0.0245,-0.0125,-0.0141,-0.0134,-0.0108,-0.0094,-0.0038,0.0034,-0.0025,-0.0021,-0.0013,0.0091,0.0126,0.0135,0.0222,0.018,0.0185,0.0188,0.0191,0.0367,0.0368,0,0,0,0,0,0,-0.0285,-0.0251,-0.0129,-0.0122,-0.0199,-0.0105,-0.0089,-0.0061,0.0034,0.0046,-0.0013,-0.001,0.0116,0.0128,0.014,0.0199,0.0186,0.0191,0.0194,0.0366,0.0367,0.0368,0,0,0,0,0,0,-0.0289,-0.0275,-0.0135,-0.0189,-0.017,-0.0102,-0.0071,-0.0058,-0.0032,0.0042,0.0055,-0.0002,0.0117,0.0132,0.0191,0.0204,0.0194,0.0199,0.0364,0.0366,0.0368,0.0317,0,0,0,0,0,0,-0.0294,-0.0276,-0.0264,-0.019,-0.0168,-0.0107,-0.007,-0.0055,-0.0029,-0.0024,0.0056,0.0068,0.0117,0.0182,0.0196,0.0212,0.0203,0.0363,0.0365,0.0367,0.0317,0.0316,0.0316,0,0,0,0,0,-0.03,-0.0285,-0.0264,-0.025,-0.0152,-0.0108,-0.0094,-0.0045,-0.0028,-0.0022,0.0043,0.0065,0.0207,0.0188,0.0204,0.0221,0.0361,0.0364,0.0367,0.0317,0.0316,0.0316,0,0,0,0,0,0,-0.0345,-0.0275,-0.025,-0.0213,-0.0174,-0.0099,-0.0088,-0.0053,0.0006,0.0009,0.0081,0.0099,0.0156,0.0199,0.0175,0.0281,0.0288,0.0295,0.0245,0.0245,0.0245,0.0275,0.0208,0,0,0,0,0,-0.0352,-0.0322,-0.026,-0.0232,-0.0219,-0.0155,-0.0131,-0.0099,-0.0041,-0.0015,0.0043,0.0113,0.0185,0.0218,0.028,0.0336,0.0411,0.036,0.036,0.0359,0.0397,0.0535,0.0552,0.0378,0.0378,0.0377,0,0,-0.0361,-0.032,-0.0302,-0.0241,-0.0205,-0.0185,-0.0141,-0.0115,-0.0082,-0.001,0.0047,0.0109,0.0199,0.0265,0.0295,0.0299,0.0437,0.0362,0.0361,0.0401,0.054,0.0558,0.0573,0.0379,0.0379,0.0379,0,0,-0.0388,-0.0333,-0.0333,-0.0303,-0.0263,-0.0215,-0.0216,-0.015,-0.0108,-0.0052,0.0021,0.0112,0.0181,0.0285,0.0338,0.0381,0.0428,0.0366,0.0395,0.0527,0.0543,0.0558,0.0624,0.0645,0.0369,0.0369,0.0369,0,-0.0407,-0.0385,-0.0328,-0.0327,-0.0305,-0.0236,-0.0237,-0.0175,-0.0094,-0.0044,-0.005,0.0152,0.0213,0.0362,0.037,0.0386,0.0433,0.038,0.0528,0.0545,0.0561,0.0625,0.065,0.0367,0.0367,0.0368,0.0368,0,-0.0437,-0.0422,-0.0422,-0.0386,-0.0355,-0.0343,-0.0265,-0.0215,-0.0163,-0.0091,0.0043,0.0164,0.0292,0.0316,0.0352,0.0504,0.0486,0.0504,0.0524,0.0576,0.0639,0.0665,0.0364,0.0365,0.0365,0.0366,0,0,-0.0472,-0.045,-0.0449,-0.0453,-0.0386,-0.0367,-0.0298,-0.0207,-0.0144,-0.004,0.0073,0.0225,0.0304,0.0377,0.0458,0.0579,0.0709,0.0574,0.0582,0.0632,0.0946,0.0726,0.0734,0.0734,0.074,0.0744,0.0923,0,-0.0516,-0.0543,-0.05,-0.0505,-0.0513,-0.0418,-0.0356,-0.0258,-0.0158,-0.0032,0.0152,0.0265,0.0323,0.038,0.0526,0.0665,0.0784,0.0656,0.0898,0.0905,0.07,0.0761,0.0714,0.0852,0.095,0.0954,0.0957,0,-0.0561,-0.0571,-0.0599,-0.0567,-0.0558,-0.0535,-0.0413,-0.0351,-0.0146,-0.0062,0.0126,0.0248,0.0474,0.0495,0.0817,0.0717,0.0836,0.0944,0.0954,0.08,0.0737,0.083,0.0897,0.1003,0.0999,0.0996,0.0993,0,-0.0631,-0.0635,-0.0661,-0.0652,-0.0598,-0.057,-0.0524,-0.0361,-0.0295,-0.0073,0.0002,0.0287,0.0422,0.0651,0.0848,0.0837,0.1165,0.1182,0.1117,0.1101,0.114,0.1115,0.143,0.1429,0.1429,0.1429,0.1428,0,-0.069,-0.0713,-0.0702,-0.0716,-0.0723,-0.0653,-0.0608,-0.0506,-0.034,-0.0249,-0.0025,0.0104,0.0464,0.0675,0.0865,0.1041,0.1186,0.1146,0.1151,0.1106,0.1078,0.1283,0.1263,0.1435,0.1434,0.1432,0.1431,0,-0.0769,-0.076,-0.0795,-0.0769,-0.0764,-0.0771,-0.0709,-0.0659,-0.0503,-0.0365,-0.0306,-0.0004,0.0221,0.0527,0.089,0.1016,0.1227,0.1253,0.1123,0.1106,0.1077,0.1054,0.1232,0.1226,0.1221,0.1217,0.1213,0,-0.0821,-0.0845,-0.0859,-0.0885,-0.0882,-0.0883,-0.087,-0.0747,-0.0684,-0.0451,-0.0384,-0.0146,-0.0003,0.04,0.0691,0.0971,0.1074,0.1064,0.1044,0.1079,0.1069,0.1052,0.1035,0.1092,0.1088,0.1084,0.1082,0,-0.0907,-0.09,-0.0924,-0.0984,-0.1003,-0.102,-0.0992,-0.0969,-0.08,-0.0709,-0.0569,-0.0462,-0.0105,0.0171,0.0498,0.0672,0.1006,0.0987,0.1171,0.107,0.0941,0.0929,0.0922,0.1051,0.1054,0.1056,0.1058,0.1059,-0.0962,-0.0998,-0.1022,-0.1077,-0.1108,-0.1131,-0.1132,-0.1082,-0.103,-0.0835,-0.0745,-0.055,-0.0243,0.0159,0.0403,0.0677,0.0706,0.0839,0.0856,0.0876,0.0748,0.0609,0.0633,0.0634,0.0634,0.0635,0.0635,0,-0.1023,-0.1052,-0.1115,-0.1165,-0.1219,-0.1205,-0.1183,-0.1137,-0.1089,-0.0933,-0.0822,-0.0551,-0.0286,0.0048,0.0411,0.0583,0.0689,0.063,0.0778,0.0802,0.0826,0.0703,0.0574,0.0575,0.0576,0.0576,0,0,-0.1054,-0.1115,-0.1144,-0.1246,-0.1282,-0.1303,-0.1289,-0.1186,-0.1059,-0.094,-0.079,-0.0595,-0.0265,-0.0013,0.0233,0.0426,0.0576,0.044,0.0464,0.0632,0.0654,0.0908,0.0737,0,0,0,0,0]}],[{"header":{"parameterUnit":"m.s-1","parameterCategory":2,"la1":30.2991,"la2":30.254,"lo1":-89.0895,"lo2":-89.0444,"dy":0.0017,"dx":0.0017,"nx":28,"ny":28,"refTime":"2025-01-24T03:00:00:Z","depth":"4","parameterNumber":2,"parameterNumberName":"U-component_of_CURRENTS"},"data":[0,0,0,0,0,0,0,0,0,0,0,0,0,0,0,0,0,0,0,0,0,0,0,0,0,0,0,0,0,0,0,0,0,0,0,0,0,0,0,0,0,0,0,0,0,0,0,0,0,0,0,0,0,0,0,0,0,0,-0.1219,-0.122,0,-0.1268,-0.1268,-0.1268,-0.1276,-0.1275,-0.1275,-0.1275,-0.1275,-0.1275,-0.1275,0,0,0,0,0,0,0,0,0,0,0,0,0,-0.1096,-0.1098,-0.1219,-0.122,-0.1221,-0.1267,-0.1268,-0.1268,-0.1276,-0.1275,-0.1275,-0.1275,-0.1275,-0.1275,-0.1275,0,0,0,0,0,0,0,0,0,0,0,0,0,-0.1144,-0.1099,-0.1219,-0.1233,-0.1235,-0.1267,-0.1268,-0.1268,-0.1276,-0.1275,-0.1275,-0.1275,-0.1275,-0.1275,-0.1275,-0.1278,0,0,-0.1275,-0.1275,0,0,0,0,0,0,0,0,-0.1141,-0.1148,-0.123,-0.1232,-0.1235,-0.1269,-0.1224,-0.127,-0.1276,-0.1256,-0.1275,-0.1275,-0.1271,-0.1271,-0.1276,-0.1278,-0.1278,-0.1275,-0.1275,-0.1275,-0.1275,0,0,0,0,0,0,0,-0.1138,-0.1146,-0.1235,-0.1231,-0.1234,-0.1224,-0.1231,-0.1233,-0.126,-0.1258,-0.126,-0.1271,-0.1271,-0.1276,-0.1276,-0.1278,-0.1275,-0.1275,-0.1275,-0.1275,-0.1332,-0.1334,0,0,0,0,0,0,-0.1142,-0.1143,-0.1233,-0.1236,-0.1191,-0.1227,-0.1234,-0.1255,-0.1261,-0.1263,-0.1271,-0.1271,-0.1276,-0.1276,-0.1276,-0.1333,-0.1275,-0.1275,-0.1275,-0.1331,-0.1333,-0.1334,0,0,0,0,0,0,-0.1139,-0.115,-0.1231,-0.1193,-0.1203,-0.123,-0.1253,-0.1256,-0.1275,-0.1272,-0.1273,-0.1289,-0.1276,-0.1276,-0.1291,-0.1331,-0.1275,-0.1275,-0.1329,-0.1331,-0.1333,-0.1413,0,0,0,0,0,0,-0.1136,-0.1149,-0.117,-0.1194,-0.1206,-0.1258,-0.1253,-0.1257,-0.1283,-0.1284,-0.1287,-0.1286,-0.1275,-0.1291,-0.1291,-0.133,-0.1276,-0.1327,-0.133,-0.1333,-0.1409,-0.1418,-0.1426,0,0,0,0,0,-0.1131,-0.1158,-0.1171,-0.1182,-0.1233,-0.1259,-0.1264,-0.1279,-0.1284,-0.1295,-0.13,-0.1287,-0.1309,-0.1292,-0.1292,-0.1332,-0.1326,-0.1329,-0.1332,-0.1405,-0.1416,-0.1426,0,0,0,0,0,0,-0.1111,-0.1162,-0.1177,-0.1217,-0.1242,-0.1262,-0.128,-0.129,-0.1304,-0.1308,-0.13,-0.13,-0.1336,-0.1317,-0.1299,-0.1356,-0.1318,-0.1321,-0.1373,-0.1383,-0.1392,-0.1406,-0.1276,0,0,0,0,0,-0.1119,-0.1157,-0.1192,-0.1225,-0.124,-0.1263,-0.128,-0.1291,-0.1306,-0.1313,-0.1316,-0.1324,-0.1348,-0.1351,-0.1362,-0.1383,-0.1363,-0.141,-0.1418,-0.1425,-0.1438,-0.145,-0.1461,-0.1345,-0.1345,-0.1345,0,0,-0.1122,-0.1155,-0.1177,-0.1224,-0.1245,-0.1261,-0.1272,-0.1302,-0.1315,-0.131,-0.1329,-0.1356,-0.1362,-0.1396,-0.141,-0.1385,-0.1443,-0.143,-0.1436,-0.1444,-0.1455,-0.1466,-0.1476,-0.1347,-0.1347,-0.1346,0,0,-0.113,-0.1174,-0.1201,-0.1224,-0.1264,-0.1274,-0.1287,-0.1317,-0.1332,-0.1355,-0.1372,-0.1425,-0.1425,-0.1461,-0.1473,-0.1532,-0.1494,-0.1533,-0.1582,-0.1594,-0.1604,-0.1612,-0.1579,-0.1584,-0.153,-0.153,-0.153,0,-0.113,-0.1167,-0.121,-0.1233,-0.1248,-0.128,-0.1293,-0.1315,-0.1345,-0.1362,-0.1365,-0.1442,-0.1461,-0.1527,-0.1565,-0.1555,-0.1534,-0.1543,-0.1606,-0.1614,-0.1621,-0.1585,-0.1589,-0.1534,-0.1534,-0.1533,-0.1533,0,-0.1146,-0.1179,-0.1195,-0.1234,-0.1255,-0.1275,-0.1308,-0.133,-0.1353,-0.1378,-0.1453,-0.1504,-0.1552,-0.158,-0.1596,-0.1674,-0.1632,-0.1621,-0.158,-0.1637,-0.1595,-0.1598,-0.154,-0.1539,-0.1537,-0.1536,0,0,-0.1128,-0.1193,-0.1199,-0.1211,-0.1257,-0.1269,-0.1299,-0.1332,-0.1352,-0.1416,-0.1457,-0.1565,-0.162,-0.1642,-0.1691,-0.1725,-0.1773,-0.1706,-0.1705,-0.1673,-0.1765,-0.167,-0.1663,-0.177,-0.1772,-0.1773,-0.1707,0,-0.1121,-0.1154,-0.1191,-0.1209,-0.1221,-0.126,-0.1281,-0.1321,-0.1358,-0.1403,-0.1503,-0.1568,-0.1633,-0.1684,-0.1739,-0.1763,-0.1789,-0.179,-0.1715,-0.1712,-0.1621,-0.1667,-0.1778,-0.1709,-0.1709,-0.171,-0.171,0,-0.1112,-0.1136,-0.1155,-0.1191,-0.1201,-0.1218,-0.1251,-0.1277,-0.1353,-0.1394,-0.1496,-0.1564,-0.1679,-0.1712,-0.179,-0.1783,-0.1796,-0.1805,-0.1801,-0.1691,-0.1624,-0.1645,-0.1715,-0.1715,-0.1714,-0.1714,-0.1714,0,-0.1055,-0.1103,-0.1114,-0.1129,-0.1178,-0.1194,-0.1217,-0.1276,-0.1299,-0.1403,-0.1434,-0.1567,-0.1627,-0.169,-0.1756,-0.1768,-0.1793,-0.1791,-0.1711,-0.1701,-0.177,-0.1762,-0.184,-0.184,-0.184,-0.184,-0.184,0,-0.1015,-0.1025,-0.1092,-0.1097,-0.1105,-0.1159,-0.1176,-0.1219,-0.1288,-0.1315,-0.1443,-0.1492,-0.1628,-0.1671,-0.1729,-0.1721,-0.1767,-0.1727,-0.1692,-0.18,-0.1797,-0.177,-0.1763,-0.1837,-0.1838,-0.1838,-0.1839,0,-0.0938,-0.0989,-0.1006,-0.1065,-0.108,-0.1085,-0.1137,-0.1149,-0.1225,-0.1264,-0.1305,-0.1423,-0.1484,-0.1578,-0.1649,-0.165,-0.167,-0.1655,-0.1737,-0.1705,-0.1569,-0.1567,-0.1543,-0.1539,-0.1536,-0.1534,-0.1531,0,-0.0897,-0.0901,-0.0965,-0.0976,-0.1002,-0.1025,-0.1035,-0.1111,-0.1122,-0.1213,-0.1218,-0.1309,-0.139,-0.1388,-0.151,-0.1566,-0.1585,-0.1554,-0.1616,-0.1578,-0.1546,-0.1548,-0.155,-0.1527,-0.1526,-0.1525,-0.1524,0,-0.0813,-0.085,-0.0868,-0.0886,-0.0906,-0.0911,-0.0934,-0.0934,-0.1013,-0.1094,-0.112,-0.1187,-0.1234,-0.1324,-0.1368,-0.1425,-0.1555,-0.1522,-0.153,-0.1588,-0.1558,-0.1529,-0.1535,-0.1514,-0.1515,-0.1516,-0.1517,0,-0.0755,-0.0743,-0.0776,-0.0782,-0.0804,-0.0785,-0.0817,-0.0832,-0.0856,-0.0969,-0.0973,-0.1094,-0.1194,-0.1248,-0.1298,-0.1337,-0.1352,-0.1331,-0.1349,-0.1362,-0.1349,-0.1287,-0.1133,0,0,0,0,0,-0.0686,-0.066,-0.0663,-0.0667,-0.0687,-0.0691,-0.0735,-0.0776,-0.0857,-0.0844,-0.0909,-0.0969,-0.106,-0.1127,-0.1143,-0.1244,-0.1358,-0.1257,-0.1342,-0.1455,-0.1467,-0.1478,0,0,0,0,0,0,-0.0637,-0.0632,-0.0626,-0.0566,-0.0546,-0.0544,-0.0571,-0.0635,-0.0637,-0.0743,-0.0801,-0.0899,-0.1006,-0.1033,-0.1115,-0.114,-0.1175,-0.1342,-0.134,-0.1448,-0.1459,-0.1469,-0.1484,0,0,0,0,0]},{"header":{"parameterUnit":"m.s-1","parameterCategory":2,"la1":30.2991,"la2":30.254,"lo1":-89.0895,"lo2":-89.0444,"dy":0.0017,"dx":0.0017,"nx":28,"ny":28,"refTime":"2025-01-24T03:00:00:Z","depth":"4","parameterNumber":3,"parameterNumberName":"V-component_of_CURRENTS"},"data":[0,0,0,0,0,0,0,0,0,0,0,0,0,0,0,0,0,0,0,0,0,0,0,0,0,0,0,0,0,0,0,0,0,0,0,0,0,0,0,0,0,0,0,0,0,0,0,0,0,0,0,0,0,0,0,0,0,0,-0.0149,-0.0148,0,-0.0103,-0.0103,-0.0103,-0.0062,-0.0061,-0.0061,-0.006,-0.002,-0.002,-0.0019,0,0,0,0,0,0,0,0,0,0,0,0,0,-0.025,-0.0248,-0.0149,-0.0148,-0.0147,-0.0103,-0.0103,-0.0103,-0.0062,-0.0061,-0.006,-0.006,-0.002,-0.002,-0.0019,0,0,0,0,0,0,0,0,0,0,0,0,0,-0.0207,-0.0247,-0.0149,-0.012,-0.0117,-0.0104,-0.0103,-0.0102,-0.0062,-0.0061,-0.006,-0.0059,-0.0021,-0.002,-0.0019,-0.0036,0,0,-0.0017,-0.0017,0,0,0,0,0,0,0,0,-0.021,-0.0204,-0.0125,-0.0122,-0.0118,-0.0085,-0.0124,-0.008,-0.0063,-0.0085,-0.006,-0.0059,-0.0042,-0.0039,-0.0036,-0.0034,-0.0033,-0.0017,-0.0017,-0.0017,-0.0017,0,0,0,0,0,0,0,-0.0213,-0.0206,-0.0133,-0.0124,-0.012,-0.0126,-0.0119,-0.0116,-0.0072,-0.0083,-0.008,-0.0071,-0.004,-0.0037,-0.0035,-0.0032,-0.0017,-0.0017,-0.0016,-0.0016,-0.0052,-0.0053,0,0,0,0,0,0,-0.0212,-0.0208,-0.0134,-0.0131,-0.016,-0.0125,-0.0117,-0.0099,-0.0072,-0.0066,-0.0072,-0.007,-0.0039,-0.0036,-0.0033,-0.0072,-0.0017,-0.0016,-0.0016,-0.0051,-0.0053,-0.0054,0,0,0,0,0,0,-0.0214,-0.0205,-0.0136,-0.0168,-0.0159,-0.0124,-0.0104,-0.0098,-0.0091,-0.0063,-0.0057,-0.007,-0.0038,-0.0034,-0.004,-0.0069,-0.0016,-0.0015,-0.0049,-0.0051,-0.0053,-0.0135,0,0,0,0,0,0,-0.0217,-0.0206,-0.02,-0.0167,-0.0157,-0.0141,-0.0105,-0.0098,-0.0087,-0.0083,-0.006,-0.0055,-0.0037,-0.0042,-0.004,-0.0067,-0.0015,-0.0048,-0.005,-0.0053,-0.0131,-0.014,-0.0148,0,0,0,0,0,-0.0221,-0.0214,-0.02,-0.0191,-0.0147,-0.0142,-0.0139,-0.0112,-0.0088,-0.0099,-0.008,-0.0055,-0.0056,-0.0042,-0.004,-0.0068,-0.0046,-0.0049,-0.0052,-0.0127,-0.0138,-0.0147,0,0,0,0,0,0,-0.0251,-0.0208,-0.0192,-0.0171,-0.0164,-0.0134,-0.0135,-0.0116,-0.011,-0.0102,-0.0072,-0.0068,-0.0084,-0.0066,-0.0051,-0.0085,-0.0047,-0.005,-0.0105,-0.0115,-0.0123,-0.0146,-0.0014,0,0,0,0,0,-0.0255,-0.024,-0.021,-0.0198,-0.0193,-0.0166,-0.016,-0.0144,-0.0129,-0.0124,-0.011,-0.0096,-0.0096,-0.0096,-0.0092,-0.0112,-0.008,-0.0128,-0.0137,-0.0144,-0.0161,-0.0129,-0.0136,-0.0064,-0.0064,-0.0064,0,0,-0.0262,-0.0238,-0.0229,-0.0204,-0.0192,-0.0211,-0.0161,-0.0156,-0.0182,-0.0122,-0.0152,-0.0125,-0.0108,-0.0131,-0.0136,-0.0118,-0.0147,-0.0148,-0.0154,-0.0168,-0.0133,-0.0139,-0.0146,-0.0066,-0.0065,-0.0065,0,0,-0.0287,-0.025,-0.0257,-0.0259,-0.0246,-0.0238,-0.0239,-0.0221,-0.0222,-0.0243,-0.0207,-0.0199,-0.0202,-0.0195,-0.0192,-0.0245,-0.019,-0.0239,-0.0303,-0.0271,-0.0277,-0.0281,-0.0244,-0.0245,-0.0245,-0.0245,-0.0245,0,-0.03,-0.0301,-0.0263,-0.0285,-0.0296,-0.0256,-0.029,-0.0294,-0.0284,-0.0297,-0.0267,-0.0262,-0.0239,-0.0266,-0.0282,-0.0265,-0.0231,-0.0265,-0.0281,-0.0285,-0.0288,-0.025,-0.0249,-0.025,-0.0249,-0.0249,-0.0248,0,-0.034,-0.035,-0.0357,-0.0372,-0.0386,-0.0402,-0.0405,-0.0421,-0.041,-0.0409,-0.0425,-0.0385,-0.0379,-0.037,-0.0344,-0.0362,-0.0325,-0.0292,-0.0255,-0.03,-0.0257,-0.0255,-0.0256,-0.0254,-0.0253,-0.0252,0,0,-0.0345,-0.0379,-0.0383,-0.0418,-0.0433,-0.045,-0.05,-0.0534,-0.0564,-0.0551,-0.0581,-0.0569,-0.0523,-0.0515,-0.0467,-0.0442,-0.0427,-0.0383,-0.0379,-0.0346,-0.035,-0.0267,-0.0256,-0.0389,-0.0389,-0.0389,-0.0308,0,-0.0391,-0.0453,-0.046,-0.0538,-0.0572,-0.0575,-0.0627,-0.0653,-0.0659,-0.0679,-0.0639,-0.0646,-0.0586,-0.057,-0.0538,-0.0462,-0.0426,-0.0452,-0.0312,-0.0308,-0.0229,-0.0253,-0.039,-0.0306,-0.0306,-0.0305,-0.0305,0,-0.0432,-0.0469,-0.0549,-0.0624,-0.064,-0.0688,-0.0753,-0.0794,-0.0815,-0.0811,-0.0801,-0.076,-0.0739,-0.0661,-0.0564,-0.058,-0.0476,-0.0405,-0.0399,-0.0295,-0.0223,-0.0252,-0.0301,-0.0301,-0.0301,-0.0302,-0.0302,0,-0.0457,-0.0535,-0.0604,-0.0629,-0.0704,-0.0752,-0.0793,-0.0835,-0.0869,-0.089,-0.089,-0.0861,-0.0821,-0.0725,-0.0569,-0.0572,-0.043,-0.0412,-0.024,-0.0232,-0.0293,-0.0289,-0.0326,-0.0326,-0.0326,-0.0327,-0.0327,0,-0.05,-0.0557,-0.0624,-0.0665,-0.0754,-0.0792,-0.0878,-0.091,-0.0941,-0.0963,-0.0949,-0.0928,-0.083,-0.073,-0.06,-0.0408,-0.0448,-0.0259,-0.0209,-0.0329,-0.033,-0.0291,-0.0288,-0.0323,-0.0324,-0.0325,-0.0325,0,-0.0518,-0.0561,-0.0646,-0.0736,-0.077,-0.0833,-0.0923,-0.0969,-0.0996,-0.1015,-0.102,-0.098,-0.0852,-0.0719,-0.0544,-0.0428,-0.0269,-0.0173,-0.0308,-0.0266,-0.0092,-0.0095,-0.0024,-0.002,-0.0017,-0.0015,-0.0013,0,-0.0534,-0.0576,-0.0686,-0.0741,-0.0789,-0.0879,-0.0933,-0.0988,-0.1012,-0.1022,-0.101,-0.0926,-0.0861,-0.0577,-0.0439,-0.0203,-0.0141,-0.0077,-0.0102,-0.0104,-0.0063,-0.007,-0.0077,-0.0008,-0.0007,-0.0007,-0.0006,0,-0.0561,-0.0597,-0.0662,-0.0764,-0.084,-0.0919,-0.0986,-0.1001,-0.1031,-0.1053,-0.0978,-0.0864,-0.07,-0.0531,-0.0327,-0.0155,-0.0154,-0.0046,-0.0052,-0.0075,-0.0084,-0.0048,-0.0058,0.0004,0.0003,0.0002,0.0001,0,-0.057,-0.0611,-0.0689,-0.0778,-0.0869,-0.0927,-0.0972,-0.0977,-0.0998,-0.0981,-0.0945,-0.081,-0.0745,-0.0499,-0.0316,-0.0143,-0.0108,-0.0072,-0.0076,-0.0086,-0.012,-0.0143,-0.0036,0,0,0,0,0,-0.0573,-0.0615,-0.07,-0.0793,-0.0879,-0.0929,-0.0988,-0.1013,-0.1019,-0.0951,-0.0945,-0.0785,-0.054,-0.0462,-0.0269,-0.0261,-0.0082,-0.0031,-0.0044,0.0062,0.005,0.0028,0,0,0,0,0,0,-0.0578,-0.0649,-0.0687,-0.0777,-0.0839,-0.0924,-0.0961,-0.0972,-0.0926,-0.0916,-0.0787,-0.0732,-0.0497,-0.0639,-0.0264,-0.0217,-0.0197,0.0075,0.0079,0.0068,0.0057,0.0048,0.0021,0,0,0,0,0]}]]